RYR4696 GCRR-LEAL

Flight info

Callsign RYR4696
Flight time N/A
Altitude 38000
Route KORAL UG5 SONSO DCT NIRAL UN871 OSDAM UM985 BARPA DCT XAVIR DCT PIMOS M445 ETURA T252 XEBAR M985 ASTRO
Aircraft B738/M-SDE3FGILRWY/SB1

Departure

Time 2026-04-28 14:00
Airport César Manrique-Lanzarote Airport (GCRR)

Arrival

Time N/A
Airport Alicante-Elche Miguel Hernández Airport (LEAL)
Time Latitude Longitude Altitude Speed Heading
2026-04-28 13:49 28.94962 -13.60777 92 ft 0 kts 297°
2026-04-28 13:53 28.94960 -13.60771 92 ft 2 kts 294°
2026-04-28 13:53 28.94953 -13.60753 42 ft 2 kts 294°
2026-04-28 13:53 28.94947 -13.60736 42 ft 2 kts 290°
2026-04-28 13:54 28.94942 -13.60718 43 ft 2 kts 283°
2026-04-28 13:54 28.94939 -13.60700 42 ft 2 kts 270°
2026-04-28 13:54 28.94942 -13.60681 45 ft 2 kts 238°
2026-04-28 13:54 28.94952 -13.60669 39 ft 1 kts 213°
2026-04-28 13:55 28.94955 -13.60666 39 ft 0 kts 211°
2026-04-28 13:56 28.94948 -13.60671 42 ft 3 kts 208°
2026-04-28 13:56 28.94916 -13.60666 43 ft 7 kts 143°
2026-04-28 13:56 28.94878 -13.60607 44 ft 12 kts 120°
2026-04-28 13:56 28.94794 -13.60589 43 ft 16 kts 204°
2026-04-28 13:57 28.94678 -13.60654 42 ft 21 kts 206°
2026-04-28 13:57 28.94539 -13.60734 39 ft 24 kts 207°
2026-04-28 13:57 28.94384 -13.60825 37 ft 26 kts 207°
2026-04-28 13:57 28.94221 -13.60920 35 ft 26 kts 207°
2026-04-28 13:58 28.94067 -13.61010 33 ft 24 kts 207°
2026-04-28 13:58 28.93923 -13.61094 30 ft 23 kts 207°
2026-04-28 13:58 28.93785 -13.61171 29 ft 22 kts 207°
2026-04-28 13:58 28.93648 -13.61191 27 ft 21 kts 132°
2026-04-28 13:59 28.93623 -13.61061 27 ft 10 kts 51°
2026-04-28 13:59 28.93683 -13.61023 29 ft 11 kts 26°
2026-04-28 13:59 28.93869 -13.60915 32 ft 63 kts 26°
2026-04-28 13:59 28.94482 -13.60565 40 ft 131 kts 27°
2026-04-28 14:00 28.95438 -13.60017 269 ft 165 kts 28°
2026-04-28 14:00 28.96426 -13.59315 968 ft 173 kts 41°
2026-04-28 14:00 28.97343 -13.58446 1826 ft 172 kts 37°
2026-04-28 14:00 28.98355 -13.57579 2271 ft 197 kts 36°
2026-04-28 14:01 28.99547 -13.56594 2550 ft 224 kts 35°
2026-04-28 14:01 29.00854 -13.55469 2831 ft 247 kts 43°
2026-04-28 14:01 29.02045 -13.53933 3218 ft 265 kts 52°
2026-04-28 14:01 29.03179 -13.52260 4093 ft 267 kts 52°
2026-04-28 14:02 29.04327 -13.50569 4935 ft 271 kts 52°
2026-04-28 14:02 29.05505 -13.48871 5748 ft 275 kts 51°
2026-04-28 14:02 29.06712 -13.47156 6575 ft 278 kts 51°
2026-04-28 14:02 29.07937 -13.45430 7374 ft 281 kts 51°
2026-04-28 14:03 29.09180 -13.43694 8157 ft 284 kts 47°
2026-04-28 14:03 29.10786 -13.42371 8871 ft 287 kts 26°
2026-04-28 14:03 29.12606 -13.41400 9622 ft 290 kts 24°
2026-04-28 14:03 29.14456 -13.40436 10300 ft 296 kts 24°
2026-04-28 14:04 29.16400 -13.39419 10518 ft 319 kts 24°
2026-04-28 14:04 29.18473 -13.38321 10839 ft 336 kts 25°
2026-04-28 14:04 29.20614 -13.37175 11452 ft 342 kts 25°
2026-04-28 14:04 29.22777 -13.36011 11937 ft 344 kts 25°
2026-04-28 14:05 29.24948 -13.34842 11984 ft 345 kts 25°
2026-04-28 14:05 29.27040 -13.33514 11985 ft 345 kts 39°
2026-04-28 14:05 29.28643 -13.31494 12016 ft 344 kts 54°
2026-04-28 14:05 29.30012 -13.29238 12004 ft 346 kts 56°
2026-04-28 14:06 29.31359 -13.26950 12001 ft 346 kts 56°
2026-04-28 14:06 29.32698 -13.24699 11999 ft 347 kts 56°
2026-04-28 14:06 29.34070 -13.22428 11999 ft 347 kts 55°
2026-04-28 14:06 29.35448 -13.20162 12000 ft 346 kts 55°
2026-04-28 14:07 29.36828 -13.17900 11999 ft 346 kts 55°
2026-04-28 14:07 29.38204 -13.15642 12000 ft 345 kts 55°
2026-04-28 14:07 29.39577 -13.13387 12001 ft 345 kts 55°
2026-04-28 14:07 29.40948 -13.11134 12000 ft 344 kts 55°
2026-04-28 14:08 29.42316 -13.08883 12001 ft 344 kts 55°
2026-04-28 14:08 29.43684 -13.06632 12001 ft 344 kts 55°
2026-04-28 14:08 29.45050 -13.04383 12001 ft 344 kts 55°
2026-04-28 14:08 29.46415 -13.02134 12001 ft 343 kts 55°
2026-04-28 14:09 29.47784 -12.99877 12039 ft 348 kts 55°
2026-04-28 14:09 29.49172 -12.97582 12685 ft 351 kts 55°
2026-04-28 14:09 29.50562 -12.95283 13516 ft 351 kts 55°
2026-04-28 14:09 29.51958 -12.92971 14274 ft 354 kts 55°
2026-04-28 14:10 29.53368 -12.90635 14963 ft 358 kts 55°
2026-04-28 14:10 29.54795 -12.88270 15669 ft 362 kts 55°
2026-04-28 14:10 29.56237 -12.85879 16371 ft 366 kts 55°
2026-04-28 14:10 29.57690 -12.83466 17043 ft 369 kts 55°
2026-04-28 14:11 29.59159 -12.81027 17700 ft 373 kts 55°
2026-04-28 14:11 29.60643 -12.78561 18336 ft 377 kts 55°
2026-04-28 14:11 29.62139 -12.76073 18963 ft 381 kts 55°
2026-04-28 14:11 29.63651 -12.73558 19581 ft 384 kts 55°
2026-04-28 14:12 29.65178 -12.71017 20181 ft 388 kts 55°
2026-04-28 14:12 29.66714 -12.68458 20759 ft 391 kts 55°
2026-04-28 14:12 29.68270 -12.65860 20968 ft 398 kts 52°
2026-04-28 14:12 29.69856 -12.63219 21435 ft 404 kts 52°
2026-04-28 14:13 29.71456 -12.60552 22006 ft 407 kts 52°
2026-04-28 14:13 29.73064 -12.57867 22587 ft 409 kts 52°
2026-04-28 14:13 29.74679 -12.55158 23135 ft 412 kts 52°
2026-04-28 14:13 29.76301 -12.52426 23638 ft 415 kts 52°
2026-04-28 14:14 29.77936 -12.49667 24061 ft 419 kts 52°
2026-04-28 14:14 29.79585 -12.46881 24487 ft 422 kts 52°
2026-04-28 14:14 29.81242 -12.44079 24906 ft 425 kts 52°
2026-04-28 14:14 29.82914 -12.41252 25324 ft 428 kts 52°
2026-04-28 14:15 29.84595 -12.38407 25737 ft 431 kts 52°
2026-04-28 14:15 29.86289 -12.35538 26143 ft 434 kts 52°
2026-04-28 14:15 29.87992 -12.32653 26540 ft 437 kts 52°
2026-04-28 14:15 29.89708 -12.29745 26928 ft 440 kts 52°
2026-04-28 14:16 29.91432 -12.26820 27316 ft 443 kts 52°
2026-04-28 14:16 29.93169 -12.23870 27686 ft 446 kts 52°